Preview of NWS' New Version of Forecast
This preview is not operational and should not be used for support decisions.
Latest weather observations around

Augusta Daniel Field (KDNL)

Using English Units (Switch to International System of Units)
Date/ Time (EDT) Wind (mph) Vis. (mi) Weather Sky Cond. Temp (°F) Rel. Humidity Wind Chill (°F) Heat Index (°F) Pressure Precip. (in)
Air Dwpt 6 hour Altimeter (inHg) Sea level (inHg) 1 hr 3 hr 6 hr
Max Min
Sep 17 12:53 WNW 5 10 Clear CLR 94 61     34%   94 29.98 29.96      
Notice The following observation data may not be complete
Sep 17 02:53 Calm 10 Clear CLR   64      %     29.97 29.94      
Notice The following observation data may not be complete
Sep 17 01:53 NNW 3 10 Clear CLR   63      %     29.97 29.95      
Notice The following observation data may not be complete
Sep 17 00:53 NNW 3 10 Clear CLR   62      %     29.97 29.95      
Notice The following observation data may not be complete
Sep 16 23:53 Calm 10 Clear CLR   64      %     29.99 29.97      
Notice The following observation data may not be complete
Sep 16 22:53 Calm 10 Clear CLR   62      %     29.99 29.97      
Notice The following observation data may not be complete
Sep 16 21:53 Calm 10 Clear CLR   61      %     29.98 29.96      
Sep 16 20:53 Calm 10 Clear CLR 87 61     42%   87 29.98 29.96      
Sep 16 19:53 ENE 3 10 Clear CLR 90 60     37%   90 29.97 29.95      
Sep 16 18:53 ENE 5 10 Clear CLR 93 60     33%   93 29.97 29.95      
Sep 16 17:53 NNW 8 10 Clear CLR 95 59     30%   95 29.97 29.95      
Sep 16 16:53 N 9 10 Clear CLR 96 59     29%   96 29.97 29.95      
Sep 16 15:53 7 10 Clear CLR 95 60     31%   95 29.99 29.96      
Sep 16 13:53 NNE 11 10 Clear CLR 93 61     35%   93 30.03 30.01      
Sep 16 12:53 N 9 10 Clear CLR 91 64     41%   93 30.06 30.04      
Sep 16 11:53 NE 8 10 Clear CLR 89 66     47%   92 30.08 30.06      
Sep 16 10:53 NE 9 10 Clear CLR 86 67     53%   89 30.1 30.08      
Sep 16 09:53 5 10 Clear CLR 83 69     63%   87 30.1 30.08      
Sep 16 08:53 N 8 10 Clear CLR 77 68     74%   78 30.09 30.08      
Sep 16 07:53 N 8 10 Clear CLR 73 68     84%   74 30.08 30.07      
Sep 16 06:53 N 9 10 Clear CLR 73 68     84%   74 30.07 30.05      
Sep 16 05:53 NNW 8 10 Clear CLR 73 68     84%   74 30.05 30.03      
Sep 16 04:53 NNW 8 10 Clear CLR 74 68     82%   75 30.05 30.03      
Sep 16 03:53 N 7 10 Clear CLR 75 68     79%   76 30.05 30.02      
Sep 16 02:53 N 5 10 Clear CLR 77 68     74%   78 30.06 30.04      
Notice The following observation data may not be complete
Sep 16 01:53 NE 5 10 Clear CLR   67      %     30.06 30.04      
Notice The following observation data may not be complete
Sep 16 00:53 ENE 5 10 Clear CLR   67      %     30.06 30.04      
Sep 15 23:53 ENE 3 10 Clear CLR 82 67     60%   85 30.07 30.05      
Sep 15 22:53 ENE 5 10 Clear CLR 83 68     61%   86 30.06 30.04      
Sep 15 21:53 NNE 7 10 Mostly Cloudy BKN050 84 69     61%   88 30.06 30.03      
Sep 15 20:53 NNE 6 10 Clear CLR 85 68     57%   88 30.04 30.02      
Sep 15 19:53 N 7 10 Clear CLR 86 68     55%   89 30.04 30.02      
Sep 15 18:53 NNE 7 10 Clear CLR 89 68     50%   93 30.04 30.02      
Sep 15 17:53 NNE 8 10 Clear CLR 91 67     45%   94 30.04 30.02      
Sep 15 16:53 N 13 10 Mostly Clear FEW050 92 66     43%   95 30.05 30.03      
Sep 15 15:53 NNE 11 10 Partly Cloudy SCT049 92 66     43%   95 30.06 30.03      
Sep 15 14:53 NNE 10 10 Partly Cloudy SCT047 91 67     45%   94 30.07 30.05      
Sep 15 13:53 N 11 10 Mostly Clear FEW045 91 66     44%   94 30.1 30.08      
Sep 15 12:53 NE 9 10 Mostly Clear FEW039 90 65     44%   92 30.12 30.1      
Sep 15 11:53 NNE 9 10 Clear CLR 87 66     50%   89 30.13 30.11      
Sep 15 10:53 ENE 10 10 Clear CLR 86 68     55%   89 30.14 30.12      
Sep 15 09:53 NE 7 10 Clear CLR 83 69     63%   87 30.15 30.13      
Sep 15 08:53 NE 3 10 Clear CLR 80 69     69%   83 30.15 30.14      
Sep 15 07:53 N 5 10 Clear CLR 74 69     85%   75 30.15 30.13      
Sep 15 06:53 N 7 10 Clear CLR 75 69     82%   76 30.14 30.12      
Sep 15 05:53 NE 5 10 Clear CLR 75 69     82%   76 30.13 30.11      
Sep 15 04:53 NNE 7 10 Clear CLR 75 69     82%   76 30.12 30.1      
Sep 15 03:53 N 7 10 Clear CLR 74 69     85%   75 30.13 30.11      
Sep 15 02:53 NE 5 10 Clear CLR 75 69     82%   76 30.14 30.12      
Sep 15 01:53 N 7 10 Clear CLR 76 69     79%   77 30.15 30.13      
Sep 15 00:53 NNE 5 10 Clear CLR 78 69     74%   79 30.15 30.14      
Sep 14 23:53 NE 5 10 Clear CLR 79 69     72%   80 30.16 30.15      
Sep 14 22:53 ENE 6 10 Clear CLR 80 69     69%   83 30.16 30.14      
Sep 14 21:53 NNE 7 10 Clear CLR 81 69     67%   84 30.17 30.16      
Sep 14 20:53 NNE 8 10 Partly Cloudy SCT039 82 69     65%   85 30.17 30.15      
Sep 14 19:53 NNE 9 10 Mostly Cloudy BKN044 84 69     61%   88 30.16 30.14      
Sep 14 18:53 N 9 10 Mostly Cloudy BKN045 BKN060 86 69     57%   90 30.15 30.14      
Sep 14 17:53 NNE 8 10 Mostly Cloudy BKN047 BKN055 90 68     49%   94 30.15 30.13      
Sep 14 16:53 ENE 8 10 Mostly Cloudy BKN040 BKN050 88 68     52%   92 30.15 30.13      
Sep 14 15:53 NNE 8 10 Mostly Cloudy SCT043 BKN060 90 68     49%   94 30.17 30.14      
Sep 14 14:53 NNE 10 10 Mostly Cloudy SCT034 BKN043 88 68     52%   92 30.19 30.17      
May 15 14:53 E 8 2 Rain and Fog/Mist FEW009 BKN019 OVC031 74 72     94%   75 30 29.98 0    
May 15 12:26 SSE 6 1 Heavy Rain and Fog/Mist FEW011 BKN030 OVC049 72 69     91%   73 30.05   0    
May 15 10:42 SSE 5 10 Mostly Cloudy SCT005 BKN009 BKN049 74 71     91%   75 30.05   0    
May 14 15:53 SSE 9 10 Partly Cloudy SCT080 89 61     39%   89 30.01 30      
Notice The following observation data may not be complete
May 14 07:53   10 Clear CLR          %              
May 14 01:53 S 7 10 Clear CLR 77 60     56%   77 30.07 30.05      
May 13 15:53 W 5 10 Mostly Clear FEW080 95 58     29%   94 30.03 30.01      
May 12 14:53 N 6 10 Partly Cloudy SCT080 95 58     29%   94 30.09 30.07      
May 12 08:53 NW 5 10 Clear CLR 80 61     52%   81 30.16 30.14      
Notice The following observation data may not be complete
May 11 21:53 NW 5 10 Clear CLR   58      %     30.08 30.06      
May 11 12:53 5 10 Clear CLR 91 61     37%   91 30.11 30.09      
Jun 11 23:53 ESE 3 10 Clear CLR 76 63     64%   76 30.2 30.19      
Jun 11 01:53 SE 5 10 Clear CLR 72 61     68%   72 30.18 30.16      
Jun 10 04:53 SSE 6 10 Clear CLR 68 61     78%     30.04 30.03      
Jun 10 03:53 S 6 10 Clear CLR 70 60     71%     30.04 30.02      
Notice The following observation data may not be complete
Jun 09 08:53 SW 3 10 Clear CLR   58      %     29.98 29.97      
Jun 09 03:53 ESE 3 10 Clear   66 60     81%     29.89 29.88      
Jun 08 17:53 3 10 Clear CLR 83 53     36%   82 29.84 29.83      
Jun 07 21:53 ESE 3 10 Clear CLR 69 61     75%     29.86 29.85      
Jun 07 09:53 NE 11 10 Partly Cloudy SCT110 70 55     59%     29.82 29.81      
Jun 06 13:53 3 10 Mostly Cloudy SCT029 BKN090 83 67     59%   86 29.76 29.75     0
Jun 06 08:01 W 3 10 Cloudy SCT006 OVC110 74 69     85%   75 29.81        
Jun 06 02:53 3 10 Clear CLR 73 68     84%   74 29.81 29.79      
Jun 05 19:53 3 2 Rain SCT038 OVC075 77 69     77%   78 29.79 29.77 0   0
Jun 05 15:53 6 10 Partly Cloudy SCT041 88 67     50%   91 29.77 29.75